This demonstration page uses our WeatherBlox Daily Observations layout. Learn more.

Left ArrowRight Arrow

39.51506, -84.39828

Hourly Observations for April 14, 2020

Temp ( °F °C ) Dew Point ( °F °C ) Humidity (%) Winds ( mph kmh ) Pressure ( in mb ) Visibility ( mi km ) Precip ( " mm )
12:15 am 00:15 Clear 40 4.5 27 -2.9 59 59 WNW 7 11 30.21 1023 10 16.0934 0 0
12:35 am 00:35 Clear 40 4.5 26 -3.6 56 56 WNW 7 11 30.21 1023 10 16.0934 0 0
12:55 am 00:55 Clear 40 4.5 25 -4.1 54 54 WNW 6 9 30.22 1023 10 16.0934 0 0
1:15 am 01:15 Cloudy 40 4.5 24 -4.5 52 52 NW 8 13 30.23 1024 10 16.0934 0 0
1:35 am 01:35 Cloudy 40 4.3 24 -4.3 54 54 WNW 7 11 30.24 1024 10 16.0934 0 0
1:55 am 01:55 Cloudy 40 4.2 24 -4.5 54 54 WNW 6 9 30.24 1024 10 16.0934 0 0
2:15 am 02:15 Mostly Cloudy 39 4 24 -4.7 53 53 NW 5 7 30.23 1024 10 16.0934 0 0
2:35 am 02:35 Mostly Cloudy 38 3.5 24 -4.7 55 55 WNW 5 7 30.25 1024 10 16.0934 0 0
2:55 am 02:55 Cloudy 38 3.4 24 -4.5 57 57 WNW 3 6 30.24 1024 10 16.0934 0 0
3:15 am 03:15 Cloudy 38 3.4 24 -4.5 57 57 W 3 6 30.25 1024 10 16.0934 0 0
3:35 am 03:35 Cloudy 38 3.2 24 -4.7 57 57 Calm 30.25 1024 10 16.0934 0 0
3:55 am 03:55 Mostly Cloudy 37 2.9 22 -5.5 54 54 NW 6 9 30.23 1024 10 16.0934 0 0
4:15 am 04:15 Clear 37 2.5 22 -5.7 55 55 NW 3 6 30.23 1024 10 16.0934 0 0
4:35 am 04:35 Clear 36 2.2 21 -5.9 55 55 Calm 30.23 1024 10 16.0934 0 0
4:55 am 04:55 Clear 35 1.8 25 -4 66 66 Calm 30.24 1024 10 16.0934 0 0
5:15 am 05:15 Clear 34 0.9 26 -3.3 74 74 Calm 30.24 1024 10 16.0934 0 0
5:35 am 05:35 Clear 33 0.5 27 -3 78 78 Calm 30.25 1025 10 16.0934 0 0
5:55 am 05:55 Clear 31 -0.7 26 -3.4 82 82 W 3 6 30.27 1025 10 16.0934 0 0
6:15 am 06:15 Clear 30 -1 27 -2.7 88 88 Calm 30.26 1025 10 16.0934 0 0
6:35 am 06:35 undefined 31 -0.8 28 -2.2 90 90 Calm 30.27 1025 N/A 0 0
6:55 am 06:55 undefined 31 -0.8 28 -2.5 88 88 Calm 30.27 1025 N/A 0 0
7:15 am 07:15 undefined 31 -0.7 28 -2.5 88 88 Calm 30.27 1025 N/A 0 0
7:35 am 07:35 undefined 31 -0.3 28 -2.3 87 87 Calm 30.27 1025 N/A 0 0
7:55 am 07:55 undefined 32 -0.1 29 -1.8 88 88 Calm 30.28 1025 N/A 0 0
8:15 am 08:15 Sunny 34 0.9 30 -1.2 86 86 Calm 30.28 1025 10 16.0934 0 0
8:35 am 08:35 Partly Cloudy 36 2.3 25 -3.9 64 64 W 3 6 30.27 1025 10 16.0934 0 0
8:55 am 08:55 Partly Cloudy 37 2.6 23 -5 58 58 W 3 6 30.28 1025 10 16.0934 0 0
9:15 am 09:15 Cloudy 37 2.9 23 -4.9 57 57 Calm 30.27 1025 10 16.0934 0 0
9:35 am 09:35 Partly Cloudy 38 3.3 22 -5.3 54 54 WNW 3 6 30.27 1025 10 16.0934 0 0
9:55 am 09:55 Cloudy 39 3.9 22 -5.7 50 50 WNW 3 6 30.25 1025 10 16.0934 0 0
10:15 am 10:15 Cloudy 40 4.4 20 -6.5 45 45 WNW 5 7 30.27 1025 10 16.0934 0 0
10:35 am 10:35 Cloudy 41 5.1 20 -6.5 43 43 WNW 3 6 30.26 1025 10 16.0934 0 0
10:55 am 10:55 Cloudy 43 5.9 22 -5.4 44 44 WSW 7 11 30.26 1025 10 16.0934 0 0
11:15 am 11:15 Cloudy 43 5.9 21 -6.1 42 42 W 10 17 30.26 1025 10 16.0934 0 0
11:35 am 11:35 Cloudy 43 6.1 20 -6.7 40 40 W 7 11 30.26 1025 10 16.0934 0 0
11:55 am 11:55 Cloudy 43 6.3 19 -7.2 38 38 W 9 15 30.26 1025 10 16.0934 0 0
12:15 pm 12:15 Cloudy 44 6.7 22 -5.7 41 41 W 14 22 30.24 1024 10 16.0934 0 0
12:35 pm 12:35 Cloudy 45 7.1 22 -5.4 41 41 WSW 16 26 30.23 1024 10 16.0934 0 0
12:55 pm 12:55 Cloudy 45 7.2 22 -5.8 39 39 W 8 13 30.22 1023 10 16.0934 0 0
1:15 pm 13:15 Cloudy 45 7.4 21 -5.9 39 39 W 15 24 30.22 1023 10 16.0934 0 0
1:35 pm 13:35 Cloudy 44 6.7 22 -5.4 42 42 W 7 11 30.21 1023 10 16.0934 0 0
1:55 pm 13:55 Cloudy 46 7.6 22 -5.3 40 40 W 14 22 30.21 1023 10 16.0934 0 0
2:15 pm 14:15 Cloudy 44 6.9 21 -6 40 40 W 20 31 30.21 1023 10 16.0934 0 0
2:35 pm 14:35 Cloudy 45 7.4 23 -5.1 41 41 WSW 14 22 30.21 1023 10 16.0934 0 0
2:55 pm 14:55 Cloudy 44 6.9 23 -5.1 42 42 W 15 24 30.2 1023 10 16.0934 0 0
3:15 pm 15:15 Cloudy 45 7.4 23 -4.9 42 42 WSW 13 20 30.19 1022 10 16.0934 0 0
3:35 pm 15:35 Cloudy 47 8.1 21 -6 37 37 W 18 30 30.18 1022 10 16.0934 0 0
3:55 pm 15:55 Cloudy 46 7.9 21 -6.3 36 36 W 15 24 30.18 1022 10 16.0934 0 0
4:15 pm 16:15 Mostly Cloudy 47 8.3 21 -6.1 36 36 W 15 24 30.17 1022 10 16.0934 0 0
4:35 pm 16:35 Cloudy 47 8.5 21 -6.2 35 35 W 17 28 30.16 1021 10 16.0934 0 0
4:55 pm 16:55 Mostly Cloudy 46 8 17 -8.2 31 31 W 16 26 30.16 1021 10 16.0934 0 0
5:15 pm 17:15 Partly Cloudy 47 8.1 16 -8.8 29 29 W 15 24 30.17 1022 10 16.0934 0 0
5:35 pm 17:35 Sunny 46 7.5 15 -9.6 29 29 W 13 20 30.17 1022 10 16.0934 0 0
5:55 pm 17:55 Sunny 46 7.7 14 -10.1 27 27 WNW 18 30 30.16 1021 10 16.0934 0 0
6:15 pm 18:15 Sunny 45 7.4 13 -10.3 27 27 W 14 22 30.18 1022 10 16.0934 0 0
6:35 pm 18:35 Sunny 45 7 14 -10 29 29 W 14 22 30.18 1022 10 16.0934 0 0
6:55 pm 18:55 Sunny 44 6.9 15 -9.7 30 30 WNW 10 17 30.19 1022 10 16.0934 0 0
7:15 pm 19:15 Sunny 44 6.4 15 -9.4 32 32 W 8 13 30.19 1022 10 16.0934 0 0
7:35 pm 19:35 Sunny 43 5.9 14 -10.1 31 31 W 12 19 30.19 1022 10 16.0934 0 0
7:55 pm 19:55 Mostly Cloudy 41 5.2 16 -8.8 36 36 W 7 11 30.19 1022 10 16.0934 0 0
8:15 pm 20:15 Clear 40 4.5 16 -9 37 37 W 9 15 30.19 1022 10 16.0934 0 0
8:35 pm 20:35 Mostly Cloudy 39 3.9 16 -8.7 40 40 W 6 9 30.19 1023 10 16.0934 0 0
8:55 pm 20:55 Clear 38 3.1 19 -7 48 48 WSW 3 6 30.2 1023 10 16.0934 0 0
9:15 pm 21:15 Clear 37 2.7 24 -4.6 59 59 Calm 30.2 1023 10 16.0934 0 0
9:35 pm 21:35 Clear 35 1.5 25 -3.8 68 68 W 3 6 30.2 1023 10 16.0934 0 0
9:55 pm 21:55 Clear 33 0.7 23 -4.9 66 66 Calm 30.21 1023 10 16.0934 0 0
10:15 pm 22:15 Clear 32 0.1 24 -4.6 71 71 Calm 30.22 1023 10 16.0934 0 0
10:35 pm 22:35 Clear 31 -0.3 26 -3.5 79 79 Calm 30.22 1023 10 16.0934 0 0
10:55 pm 22:55 Clear 31 -0.4 25 -4 77 77 N 5 7 30.22 1023 10 16.0934 0 0
11:15 pm 23:15 Clear 30 -0.9 25 -3.8 81 81 Calm 30.22 1023 10 16.0934 0 0
11:35 pm 23:35 Clear 29 -1.8 25 -3.8 86 86 Calm 30.21 1023 10 16.0934 0 0
11:55 pm 23:55 Clear 30 -1.2 25 -3.7 83 83 Calm 30.21 1023 10 16.0934 0 0

Powered by AerisWeather